Tracking 23752 objects as of 23-Oct-2021
HD Live streaming from Space Station
objects crossing your sky now

FREGAT DEB

Track FREGAT DEB now!
10-day predictions


NORAD ID: 45969
Int'l Code: 2011-037GA
Perigee: 628.0 km
Apogee: 1,681.1 km
Inclination: 50.9 °
Period: 108.3 minutes
Semi major axis: 7525 km
RCS: Unknown
Launch date: July 18, 2011
Source: Commonwealth of Independent States (former USSR) (CIS)
Launch site: TYURATAM MISSILE AND SPACE COMPLEX (TTMTR)

Note: This is SATELLITE DEBRIS
aabbcc
Your satellite tracking list
Your tracking list is empty




NASA's NSSDC Master Catalog

Two Line Element Set (TLE):
1 45969U 11037GA  21295.54855394  .00061713  00000-0  32954-1 0  9999
2 45969  50.8576 237.1567 0699681 230.9279 122.7339 13.29817041 57003
Source of the keplerian elements: AFSPC